星链-11335 (STARLINK-11335)

导读

STARLINK-11335是美国SpaceX公司星链星座的一员,于2024年10月30日发射,目前处于在轨运行状态。该卫星属于Starlink V1.0平台,运行在近地点359千米、远地点360千米的近地轨道,轨道倾角53.158°,轨道周期约91.7分钟。作为全球卫星互联网项目的组成部分,它将为全球尤其是偏远地区提供高速低延迟互联网服务,助力缩小数字鸿沟。

Basic Information
目录编号:
61687
目录名称:
STARLINK-11335
国际标识:
2024-195A
轨道中心:
EARTH
卫星名称:
星链-11335
卫星全名:
星链-11335 (STARLINK-11335)
卫星状态:
在轨 (已飞行588 天)
发射日期:
2024-10-30 UTC
国别 :
美国 (US)
星等 :
--
Orbit Information
数据来源 国际轨道数据 AOE轨道数据
星历时间 2026-06-09T23:48:42+0800
20小时前
查看轨道信息
2026-06-07T07:00:00+0800
3天前
查看轨道信息
半长轴 6737.867km 6737.806km
偏心率 0.0001323 0.0001395
轨道倾角 53.160° 53.151°
近地点辐角 98.136° 102.407°
升交点赤经 293.241° 306.556°
平近点角 261.981° 108.681°
近地点 358.838km 358.729km
远地点 360.622km 360.609km
周期 91.737分钟 91.735分钟
每日圈数 15.697089 15.697304
Detailed Information
固有亮度:
5
最大亮度:
2.5
卫星平台:
Starlink V1.0
覆盖范围:
全球
运营商:
太空探索技术公司
运营商所在国:
美国
制造商(研发单位):
太空探索技术公司
制造商所在国:
美国
使用方式:
暂无
Satellite Introduction
Starlink 计划是 SpaceX 推出的全球卫星互联网项目,通过发射低轨道卫星,为全球尤其是偏远地区提供高速、低延迟的互联网服务。自 2019 年起,Starlink 已部署数千颗卫星,旨在缩小全球数字鸿沟,推动互联网普及。该项目还为军事、航空等行业提供通信支持,带来广泛经济效益。
2D Orbit Map
3D Orbit Map
Orbit Altitude Analysis Chart
Orbit Inclination Analysis Chart
Orbit Comprehensive Analysis Chart
View Comprehensive Chart